Location: Home
(42.5358°N, 72.7383°W)
Time: 08:54:00
(UTC-04:00)

A-11 Canister half - Pass Details

Date: 05 July 2022
Orbit: 1514 x 1685 km, 47.2° (Epoch: 15 August)

Event Time Altitude Azimuth Distance (km) Brightness Sun altitude
Rises 02:03:24 0° 287° (WNW) 4,936 11.7 -22.8°
Reaches altitude 10° 02:06:37 10° 289° (WNW) 3,937 11.1 -22.7°
Maximum altitude 02:16:46 77° 16° (NNE) 1,685 9.2 -22.0°
Drops below altitude 10° 02:26:34 10° 103° (ESE) 3,814 11.2 -21.4°
Sets 02:29:38 0° 105° (ESE) 4,775 11.7 -21.2°
